sat.trackr.live / text

‹ back to catalog

PACE

NORAD 58928 · 2024-025A

PAYLOAD ACTIVE UNKNOWN

§ Identity

Operator
Country
US
Launch date
2024-02-08
Launch site
AFETR
Launch vehicle
Mass (kg)
RCS (m²)

External: N2YO · Heavens-Above · Gunter

§ Orbital elements

Epoch: 2026-05-25T01:12:36.466848Z

Period
98.26 min
Inclination
98.0952°
Eccentricity
0.0001871
Mean motion
14.65520783 rev/d
Perigee alt
674.1 km
Apogee alt
676.7 km
Semi-major
7,053.5 km
B*
7.1438e-5
RAAN
76.7101°
Arg perigee
12.8741°
Mean anomaly
347.2510°
Rev number
12,254

§ Raw data

PACE1 58928U 24025A   26145.05042207  .00000340  00000+0  71438-4 0  99962 58928  98.0952  76.7101 0001871  12.8741 347.2510 14.65520783122546

JSON: /api/v1/satellites/58928 · /tle

For live sub-satellite position, see the globe view (requires WebGL).

§ Visibility from observer

Set your observer location to see the next 7 days of passes ≥ 10°. The values pass through the URL so the page stays shareable.

No JS? Fill the form by hand. The geolocation button needs JavaScript.

§ Radio — SatNOGS DB

ModeDescriptionDownlinkUplink
FM S-band telemetry 2.273 GHz

1 transmitter · refreshed weekly from db.satnogs.org